Airfield :
LOGIN :

Register | Disclaimer

   EN    FR    IT 

 










Legend :    VFR   Marginal VFR   IFR   Intensive IFR   Very Intensive IFR
Visi :
Ceiling :
>= 8 km
>= 3000ft
5 to 8 km
1000 to 3000 ft
1500m to 5 km
500 to 1000 ft
800 to 1500m
200 to 500 ft
< 800m
< 200 ft
Symbols :   Thunderstorms  Fog  Heavy snow  Heavy precipitations  Wind > 20 kt
SIGMETs :     Misc.  Thunderstorms  Icing  Turbulence  Mountain Waves  Volcanic Ashes







- Airport Elevation : 353 ft
- IATA code : ZAG


LDZA - Zagreb Pleso

CURRENT METAR :
  • 210100Z 25003KT 200V280 CAVOK 10/08 Q1018 NOSIG

EXPIRED METARs :
  • 210030Z 25005KT CAVOK 09/08 Q1018 NOSIG
  • 210000Z 23004KT CAVOK 10/08 Q1019 NOSIG
  • 202330Z 23004KT CAVOK 10/08 Q1019 NOSIG
  • 202300Z 25007KT CAVOK 11/08 Q1019 NOSIG
  • 202230Z 25007KT CAVOK 11/08 Q1019 NOSIG

TAF TAF LDZA
Valid from the 21 at 00:00 until the 22 at 00:00 UTC


202325Z 2100/2200 25006KT CAVOK TX23/2113Z TN09/2105Z
ATIS : +385 1 6-259-214
No reported NOTAMs for that airfield.



MET'MAP, your aeronautical weather chart ! - Copyright ORBIFLY December 2007 - Disclaimer

ORBIFLY MET'MAP TEAM :

Programming & Development : Alexandra Zaïnal
Concept & Development : Baudouin d'Aumeries
Co-Development & Prog : Marc-Olivier Méhu
Technical & hardware support : Manuel Goepfert

Contact : metmap@orbifly.com




SOURCES & CREDITS :

   NOAA